TimePDT,TemperatureF,Dew PointF,Humidity,Sea Level PressureIn,VisibilityMPH,Wind Direction,Wind SpeedMPH,Gust SpeedMPH,PrecipitationIn,Events,Conditions,WindDirDegrees,DateUTC
1:15 AM,39.2,37.4,93,30.08,7.0,Calm,Calm,-,N/A,,Clear,0,2012-10-10 08:15:00
1:35 AM,41.0,41.0,100,30.08,5.0,Calm,Calm,-,N/A,,Clear,0,2012-10-10 08:35:00
1:55 AM,41.0,39.2,93,30.08,4.0,Calm,Calm,-,N/A,,Clear,0,2012-10-10 08:55:00
2:15 AM,41.0,39.2,93,30.08,5.0,Calm,Calm,-,N/A,,Clear,0,2012-10-10 09:15:00
2:35 AM,39.2,37.4,93,30.07,5.0,Calm,Calm,-,N/A,,Clear,0,2012-10-10 09:35:00
2:55 AM,41.0,41.0,100,30.07,3.0,Calm,Calm,-,N/A,,Clear,0,2012-10-10 09:55:00
3:15 AM,37.4,37.4,100,30.07,3.0,Calm,Calm,-,N/A,,Clear,0,2012-10-10 10:15:00
3:35 AM,39.2,37.4,93,30.07,2.0,Calm,Calm,-,N/A,,Mostly Cloudy,0,2012-10-10 10:35:00
3:55 AM,42.8,42.8,100,30.07,7.0,Calm,Calm,-,N/A,,Overcast,0,2012-10-10 10:55:00
4:15 AM,42.8,42.8,100,30.06,7.0,Calm,Calm,-,N/A,,Overcast,0,2012-10-10 11:15:00
4:35 AM,44.6,44.6,100,30.06,10.0,Calm,Calm,-,N/A,,Overcast,0,2012-10-10 11:35:00
4:55 AM,44.6,44.6,100,30.06,7.0,Calm,Calm,-,N/A,,Overcast,0,2012-10-10 11:55:00
5:35 AM,44.6,44.6,100,30.06,1.5,NE,3.5,-,N/A,,Overcast,50,2012-10-10 12:35:00
5:55 AM,44.6,44.6,100,30.06,1.2,East,3.5,-,N/A,,Overcast,90,2012-10-10 12:55:00
6:15 AM,44.6,44.6,100,30.06,0.5,East,3.5,-,N/A,Fog,Fog,80,2012-10-10 13:15:00
6:35 AM,44.6,44.6,100,30.07,0.5,East,3.5,-,N/A,Fog,Fog,100,2012-10-10 13:35:00
6:55 AM,44.6,44.6,100,30.07,0.8,East,4.6,-,N/A,,Overcast,80,2012-10-10 13:55:00
7:15 AM,44.6,44.6,100,30.07,1.0,ENE,3.5,-,N/A,,Overcast,60,2012-10-10 14:15:00
7:35 AM,44.6,44.6,100,30.07,0.8,East,4.6,-,N/A,,Overcast,80,2012-10-10 14:35:00
7:55 AM,44.6,44.6,100,30.07,1.8,East,4.6,-,N/A,,Overcast,90,2012-10-10 14:55:00
8:15 AM,44.6,44.6,100,30.07,2.0,East,4.6,-,N/A,,Overcast,100,2012-10-10 15:15:00
8:35 AM,44.6,44.6,100,30.08,2.5,East,3.5,-,N/A,,Overcast,80,2012-10-10 15:35:00
8:55 AM,46.4,46.4,100,30.08,3.0,East,3.5,-,N/A,,Overcast,90,2012-10-10 15:55:00
9:15 AM,46.4,46.4,100,30.08,2.5,East,3.5,-,N/A,,Overcast,80,2012-10-10 16:15:00
9:35 AM,46.4,46.4,100,30.08,4.0,East,3.5,-,N/A,,Overcast,90,2012-10-10 16:35:00
9:55 AM,48.2,46.4,93,-9999,4.0,East,3.5,-,N/A,,Overcast,80,2012-10-10 16:55:00
10:15 AM,48.2,48.2,100,30.08,5.0,ENE,3.5,-,N/A,,Overcast,70,2012-10-10 17:15:00
10:35 AM,50.0,48.2,94,30.08,5.0,NE,3.5,-,N/A,,Overcast,40,2012-10-10 17:35:00
10:55 AM,50.0,50.0,100,30.08,7.0,Calm,Calm,-,N/A,,Overcast,0,2012-10-10 17:55:00
11:15 AM,50.0,48.2,94,30.08,7.0,NNE,4.6,-,N/A,,Overcast,20,2012-10-10 18:15:00
11:35 AM,51.8,48.2,88,30.07,10.0,North,4.6,-,N/A,,Overcast,360,2012-10-10 18:35:00
11:55 AM,51.8,48.2,88,30.06,7.0,NNW,8.1,-,N/A,,Overcast,330,2012-10-10 18:55:00
12:15 PM,51.8,46.4,82,30.06,7.0,NNW,6.9,-,N/A,,Overcast,340,2012-10-10 19:15:00
12:35 PM,51.8,48.2,88,30.06,7.0,North,6.9,-,N/A,,Overcast,350,2012-10-10 19:35:00
12:55 PM,51.8,46.4,82,30.06,10.0,NNW,9.2,-,N/A,,Overcast,340,2012-10-10 19:55:00
1:15 PM,51.8,48.2,88,30.06,10.0,NNW,9.2,-,N/A,,Overcast,330,2012-10-10 20:15:00
1:35 PM,51.8,46.4,82,30.05,10.0,NNW,10.4,-,N/A,,Overcast,330,2012-10-10 20:35:00
1:55 PM,51.8,46.4,82,30.04,10.0,NNW,10.4,-,N/A,,Overcast,330,2012-10-10 20:55:00
2:15 PM,51.8,46.4,82,30.04,10.0,NNW,10.4,-,N/A,,Overcast,330,2012-10-10 21:15:00
2:35 PM,51.8,46.4,82,30.03,10.0,NNW,11.5,-,N/A,,Overcast,330,2012-10-10 21:35:00
2:55 PM,51.8,46.4,82,30.03,10.0,NNW,11.5,-,N/A,,Overcast,340,2012-10-10 21:55:00
3:15 PM,55.4,46.4,72,30.02,10.0,NW,8.1,-,N/A,,Mostly Cloudy,320,2012-10-10 22:15:00
3:35 PM,55.4,46.4,72,30.01,10.0,NW,11.5,-,N/A,,Clear,320,2012-10-10 22:35:00
3:55 PM,55.4,46.4,72,30.01,10.0,NNW,10.4,-,N/A,,Clear,330,2012-10-10 22:55:00
4:15 PM,55.4,46.4,72,30.00,10.0,NNW,10.4,-,N/A,,Clear,340,2012-10-10 23:15:00
4:35 PM,55.4,46.4,72,30.00,10.0,NNW,12.7,-,N/A,,Clear,340,2012-10-10 23:35:00
4:55 PM,55.4,46.4,72,30.00,10.0,NNW,10.4,17.3,N/A,,Clear,340,2012-10-10 23:55:00
5:15 PM,53.6,46.4,77,30.00,10.0,NNW,11.5,-,N/A,,Clear,340,2012-10-11 00:15:00
5:35 PM,51.8,46.4,82,29.99,10.0,NNW,11.5,17.3,N/A,,Clear,340,2012-10-11 00:35:00
5:55 PM,51.8,46.4,82,29.99,10.0,North,8.1,-,N/A,,Clear,350,2012-10-11 00:55:00
6:15 PM,51.8,46.4,82,29.99,10.0,NNW,8.1,-,N/A,,Clear,340,2012-10-11 01:15:00
6:35 PM,50.0,46.4,87,29.99,10.0,NNW,8.1,-,N/A,,Clear,340,2012-10-11 01:35:00
6:55 PM,48.2,44.6,87,-9999,10.0,North,3.5,-,N/A,,Clear,360,2012-10-11 01:55:00
7:15 PM,48.2,46.4,93,29.99,10.0,North,3.5,-,N/A,,Clear,10,2012-10-11 02:15:00
7:35 PM,48.2,44.6,87,29.99,7.0,Calm,Calm,-,N/A,,Clear,0,2012-10-11 02:35:00
7:55 PM,46.4,44.6,93,30.00,7.0,Calm,Calm,-,N/A,,Clear,0,2012-10-11 02:55:00
8:15 PM,42.8,41.0,93,29.99,7.0,Calm,Calm,-,N/A,,Clear,0,2012-10-11 03:15:00
8:35 PM,42.8,42.8,100,29.99,7.0,Calm,Calm,-,N/A,,Clear,0,2012-10-11 03:35:00
8:55 PM,41.0,39.2,93,29.99,7.0,Calm,Calm,-,N/A,,Clear,0,2012-10-11 03:55:00
9:15 PM,41.0,39.2,93,30.00,7.0,Calm,Calm,-,N/A,,Clear,0,2012-10-11 04:15:00
9:35 PM,41.0,41.0,100,30.00,7.0,Calm,Calm,-,N/A,,Clear,0,2012-10-11 04:35:00
9:55 PM,41.0,39.2,93,30.00,5.0,Calm,Calm,-,N/A,,Clear,0,2012-10-11 04:55:00
10:15 PM,39.2,37.4,93,30.00,5.0,Calm,Calm,-,N/A,,Clear,0,2012-10-11 05:15:00
10:35 PM,37.4,37.4,100,30.00,5.0,Calm,Calm,-,N/A,,Clear,0,2012-10-11 05:35:00
10:55 PM,37.4,37.4,100,30.00,7.0,Calm,Calm,-,N/A,,Clear,0,2012-10-11 05:55:00
11:15 PM,39.2,37.4,93,30.01,5.0,Calm,Calm,-,N/A,,Clear,0,2012-10-11 06:15:00
11:35 PM,37.4,35.6,93,30.01,7.0,Calm,Calm,-,N/A,,Clear,0,2012-10-11 06:35:00
11:55 PM,37.4,35.6,93,30.01,7.0,Calm,Calm,-,N/A,,Clear,0,2012-10-11 06:55:00